Simultaneous Nadir Overpasses (SNOs) Predictions

Prediction of SNOs between GOES-17 and METOP-A Satellite Orbit:

Table of predicted SNOs for the next 14.0 days since TLE Epoch: 3/13/2020
Index Date Time (GOES-17) GOES-17 Lat,Lon METOP-A Lat,Lon Distance(km) Time Diff (sec)
1 03/14/2020 06:14:23 -0.00,-137.20 -0.89,-141.21 457.31 80
2 03/15/2020 05:51:04 -0.00,-137.20 0.20,-136.23 110.05 80
3 03/16/2020 18:09:56 -0.00,-137.22 0.80,-140.83 410.47 80
4 03/17/2020 17:51:57 -0.00,-137.22 -0.30,-135.84 156.69 80
5 03/19/2020 06:10:58 0.00,-137.19 -0.69,-140.48 374.21 80
6 03/20/2020 05:47:38 -0.00,-137.18 0.34,-135.48 192.78 80
7 03/21/2020 18:06:30 0.00,-137.20 0.65,-140.08 328.28 80
8 03/22/2020 17:48:30 0.01,-137.20 -0.45,-135.10 238.59 80
9 03/24/2020 06:07:32 -0.01,-137.16 -0.55,-139.73 292.78 80
10 03/25/2020 05:44:12 -0.01,-137.15 0.55,-134.75 273.69 80
11 03/26/2020 18:03:03 0.01,-137.16 0.50,-139.34 248.35 80
12 03/27/2020 17:45:04 0.01,-137.15 -0.59,-134.35 317.84 80




NCC Satellite Simultaneous Nadir Overpasses (SNOs) Prediction Service
